Theta_e
316 316 316 316 316 320 323 324 322 323 323 317 319 321 323 327 325 325 326 326 327 333 334 331 330 334 336 337 339 345 349 347 347 343 343 353 350 349 352 351 350 348 346 340 335 335 333 329 328 326 317 314 318 318 319 323 325 325 324 321 320 322 324 328 333 337 338 339 338 338 338 338 339 338 339 338 338 338 339 339 338 338 339 338 338 337 337 336 334 333 329 326 327 323 319 321 316
315 315 316 316 317 321 323 323 321 320 320 316 319 322 325 327 325 325 327 329 330 335 334 331 333 338 339 340 339 342 349 351 352 351 351 351 350 351 351 351 350 347 346 340 335 335 333 331 329 327 318 315 318 318 320 324 327 328 328 326 325 326 329 333 337 339 338 338 338 338 338 338 338 339 339 338 338 338 339 339 338 338 338 338 337 337 336 335 334 333 329 325 326 323 321 323 316
315 315 317 318 320 322 323 323 319 317 317 315 319 326 326 326 326 329 332 332 334 335 333 334 336 338 338 336 339 344 348 350 352 351 349 349 352 351 351 351 349 347 346 341 339 335 334 332 330 329 319 314 319 319 321 325 328 330 331 331 331 331 335 338 339 338 338 338 337 338 338 338 339 339 339 338 338 338 339 339 339 338 338 338 337 337 335 335 334 332 330 324 321 320 321 321 315
314 315 317 319 320 321 323 322 321 318 316 316 318 325 327 328 330 333 336 336 335 335 334 336 336 340 341 340 342 344 346 348 350 349 349 351 352 351 351 350 348 347 345 343 342 337 334 333 331 329 320 314 318 320 322 326 329 331 333 334 335 337 338 339 338 338 338 338 338 337 338 338 339 339 339 339 338 338 338 338 339 338 337 337 337 336 335 334 332 329 326 320 318 319 322 320 314
315 317 317 318 320 322 323 322 323 319 317 318 319 324 328 329 333 336 338 338 337 337 337 338 337 341 344 347 347 344 346 348 348 348 350 351 352 351 350 348 347 346 345 344 343 338 334 333 332 330 322 314 316 321 324 327 329 332 336 337 338 339 338 338 338 339 338 338 338 337 338 338 339 339 338 338 337 337 336 335 334 333 333 334 333 334 333 331 329 323 319 318 320 322 321 317 313
316 318 318 318 320 321 322 319 318 318 321 324 322 325 327 326 333 334 336 337 338 338 337 338 338 341 346 350 350 347 349 348 347 348 350 351 350 350 349 347 346 345 344 343 342 338 335 334 333 331 324 316 314 319 324 326 328 332 336 338 339 339 338 338 338 339 338 338 338 337 338 337 337 337 337 336 335 333 330 328 327 324 324 324 323 325 326 326 324 317 315 320 323 321 318 315 313
318 320 320 319 320 320 320 318 317 320 322 326 325 325 326 325 331 329 331 336 338 340 337 338 340 341 345 348 349 349 350 348 348 348 349 350 350 349 348 346 345 345 343 343 342 338 335 335 333 332 327 318 313 316 322 326 328 332 336 338 338 338 338 338 338 339 338 338 338 338 337 336 335 335 334 332 330 328 325 323 322 319 316 313 313 314 317 320 318 313 317 321 322 319 316 314 314
318 320 322 321 321 321 319 318 319 322 323 325 325 325 325 325 329 327 327 330 332 336 336 340 340 338 343 344 348 350 349 349 349 348 349 349 349 347 346 346 344 344 344 344 341 337 335 335 334 333 328 321 314 314 320 325 328 332 336 338 338 338 338 338 338 339 338 338 338 337 336 335 334 333 331 329 327 325 321 319 316 313 310 309 309 310 312 315 312 312 319 320 320 319 318 316 315
317 318 320 322 321 320 318 319 320 323 323 324 326 325 325 324 328 327 325 326 327 330 335 340 339 340 343 345 350 351 349 349 349 348 348 348 347 346 345 345 343 343 344 343 339 337 336 335 334 333 330 324 316 313 317 323 328 333 337 337 337 338 338 338 338 338 338 338 337 336 336 335 333 331 329 328 326 323 318 314 311 309 308 308 308 308 310 310 308 313 320 320 319 320 319 319 316
318 318 319 321 319 317 316 318 321 322 324 325 325 324 323 323 325 326 325 325 326 330 336 341 340 342 344 346 349 350 350 349 348 347 347 347 346 345 346 344 344 344 344 343 339 336 336 335 334 333 332 327 319 313 314 320 328 334 336 336 336 337 337 337 338 338 337 337 337 336 336 334 333 330 327 324 322 319 315 312 309 308 308 308 308 308 308 308 309 314 319 319 319 319 320 321 318
318 320 319 319 317 315 315 318 321 322 325 325 324 323 323 321 322 324 324 324 325 328 336 339 340 342 345 349 350 351 350 349 348 347 347 347 347 346 346 345 344 344 344 343 339 336 336 336 335 334 333 329 323 317 312 316 326 332 334 336 336 336 337 336 336 336 336 336 336 335 334 333 332 328 324 320 318 316 313 309 308 308 308 308 308 307 308 308 310 315 319 320 320 320 320 320 319
319 320 319 318 316 317 318 318 320 323 324 324 323 322 321 321 321 321 322 323 324 326 333 338 340 341 341 347 350 350 350 349 349 348 348 348 347 347 346 345 344 345 345 343 338 335 336 336 335 334 333 331 326 320 314 313 321 329 332 335 335 336 336 335 334 334 334 333 334 334 332 330 328 325 321 317 315 313 310 308 308 308 308 308 308 308 308 309 311 316 319 320 321 321 321 320 319
319 320 320 318 318 320 319 319 321 322 323 323 323 322 322 321 321 322 322 322 323 325 330 338 342 342 340 346 350 350 350 350 350 349 348 348 347 347 346 346 345 346 346 343 339 337 337 336 336 335 333 331 328 322 316 311 316 324 330 334 334 335 335 334 333 332 331 331 332 331 329 326 323 321 318 314 312 311 309 308 309 308 308 308 308 308 308 309 313 317 319 321 321 323 322 320 320
318 320 320 319 320 320 320 319 320 320 321 323 325 324 325 325 324 324 323 321 323 324 329 339 343 344 345 348 350 350 351 350 350 349 348 347 346 346 346 345 345 345 345 343 341 340 339 338 337 336 334 333 329 324 319 312 312 320 328 333 334 334 334 333 332 331 330 330 331 329 326 322 320 319 316 312 311 310 309 309 309 309 308 308 308 308 309 309 312 316 319 321 322 324 323 322 321
318 320 319 319 319 319 320 320 320 319 320 324 324 324 326 325 327 326 324 322 321 325 332 341 341 342 347 349 349 350 351 350 350 349 348 347 346 346 345 346 345 345 345 345 343 342 341 339 338 336 336 335 332 327 320 314 311 317 327 332 334 334 334 333 332 332 331 330 329 325 322 319 318 318 315 312 311 311 310 310 309 309 309 308 308 308 309 309 311 316 318 320 322 323 324 324 324
318 319 319 318 317 317 319 321 321 320 321 323 322 323 324 324 331 329 325 322 321 329 335 341 341 341 344 344 347 351 350 349 349 348 348 347 346 346 345 345 345 345 346 345 344 343 341 340 339 339 338 338 338 334 322 314 311 314 325 332 333 334 334 333 333 331 330 328 323 320 321 323 321 322 324 317 312 313 312 312 312 310 310 309 309 308 309 309 311 314 316 319 320 322 324 324 325
318 319 319 318 317 316 319 322 320 319 321 323 322 322 322 323 333 331 327 323 323 333 335 339 343 341 342 342 348 351 350 349 349 348 348 347 347 346 345 345 345 346 346 345 344 343 341 341 341 341 340 339 340 337 326 314 311 314 323 329 332 334 334 332 330 328 324 320 317 317 321 329 328 328 332 323 315 317 315 315 315 314 313 310 309 309 308 310 311 313 316 318 319 320 322 323 323
318 318 318 317 317 318 320 322 321 321 322 323 322 323 321 322 332 332 328 325 324 333 335 340 344 343 345 348 350 350 350 349 349 348 347 347 347 346 345 345 345 345 344 344 343 342 342 341 342 341 340 340 338 338 330 314 311 319 324 328 331 332 330 329 330 327 321 316 317 319 321 329 332 328 326 325 323 322 320 318 319 317 317 315 313 312 310 310 309 312 315 316 319 320 322 326 327
318 319 317 317 319 320 321 322 322 322 322 323 322 322 322 323 330 333 329 326 326 332 338 343 345 346 348 350 350 349 349 349 348 348 347 346 346 346 345 344 343 344 343 343 342 342 342 341 340 340 339 339 337 337 331 320 320 325 327 328 330 329 329 332 331 329 328 327 327 327 328 331 333 329 323 326 327 322 321 320 320 320 320 319 318 318 317 314 312 311 312 313 315 317 323 331 333
318 318 317 317 320 321 322 322 321 321 322 323 322 321 323 323 328 334 330 327 327 333 339 343 343 345 348 349 348 348 348 348 347 347 347 345 346 345 344 344 343 343 342 342 341 341 340 338 338 338 337 336 335 335 333 330 330 331 331 330 329 329 332 335 333 330 332 332 331 331 332 330 331 332 329 331 332 329 328 327 327 327 327 325 320 323 325 321 318 316 315 315 313 317 327 333 333
319 318 318 320 321 321 321 321 320 321 321 321 322 321 322 323 327 334 331 326 327 333 338 342 342 345 348 349 348 348 348 347 348 346 345 345 345 344 344 343 342 342 341 341 340 338 337 336 336 335 335 334 334 334 333 332 333 334 333 332 332 332 333 335 332 326 326 328 329 329 330 330 334 337 335 334 336 335 334 334 334 333 334 333 329 330 331 327 326 325 325 323 321 325 331 333 333
318 318 319 320 321 321 321 321 319 319 320 320 321 320 323 325 328 334 331 328 330 332 337 341 342 345 348 348 348 348 347 347 346 345 345 344 344 344 343 342 342 340 340 339 338 337 335 335 335 334 333 333 334 334 333 332 333 335 333 330 333 332 330 330 327 322 324 327 328 329 331 334 336 338 337 336 338 337 336 336 336 335 336 338 336 335 335 332 331 332 332 330 330 331 331 331 332
318 319 319 320 321 321 321 320 319 320 320 320 320 320 326 331 332 334 332 331 337 337 337 340 341 344 346 345 347 347 347 346 345 345 344 344 343 343 342 341 340 338 337 336 335 335 334 334 334 333 333 333 334 333 333 333 334 337 334 331 332 330 325 324 325 326 327 328 328 331 335 337 338 339 338 336 337 338 338 337 338 337 337 338 337 336 337 336 334 335 334 333 332 332 332 332 332
319 318 320 321 320 321 321 320 319 319 319 320 320 320 325 332 334 333 332 334 340 342 342 343 343 343 343 343 345 346 346 345 344 344 344 343 343 342 341 339 337 336 335 334 334 334 334 334 333 334 333 333 333 332 332 333 334 336 333 330 331 329 328 328 327 326 326 327 330 334 335 337 339 339 338 338 337 338 338 337 338 338 337 338 337 336 337 337 336 336 335 334 333 332 334 334 333
319 318 321 321 321 321 320 320 319 319 319 320 320 320 321 328 333 333 334 338 342 343 342 342 341 342 343 344 344 346 346 345 345 344 343 343 342 341 339 337 335 334 334 333 333 334 334 334 334 334 334 334 333 333 334 334 333 332 329 330 330 329 332 333 330 328 331 333 334 335 335 335 337 337 337 337 338 338 337 336 337 338 337 337 337 338 338 337 337 338 337 335 334 334 334 334 334
319 319 320 321 321 321 320 320 319 319 320 319 320 321 321 325 333 334 337 343 345 344 340 339 340 342 345 345 346 346 346 345 345 344 343 342 341 339 338 336 334 334 334 334 334 335 334 334 334 334 334 335 334 334 335 335 333 332 333 333 331 332 334 334 334 334 335 336 335 335 335 334 335 336 335 335 336 335 335 335 336 337 336 335 334 337 336 335 336 336 337 337 336 336 335 335 335
320 320 320 320 321 320 320 319 319 319 319 320 320 320 321 325 333 337 341 346 346 345 344 343 343 343 344 345 346 346 346 346 345 344 343 341 340 338 337 335 334 334 334 335 335 335 335 335 336 335 335 336 335 336 336 336 336 337 338 336 335 336 336 336 338 338 337 337 336 335 336 335 335 336 335 335 334 333 334 334 333 334 334 332 330 333 332 331 332 333 335 336 336 336 335 336 336
319 319 319 319 320 320 320 319 319 320 319 320 321 322 323 328 335 339 345 347 345 345 346 345 346 345 344 346 346 346 345 345 344 343 342 341 340 338 336 335 334 335 335 336 336 334 335 335 335 335 335 336 336 337 336 337 339 338 338 337 336 335 336 339 339 338 338 336 334 335 335 334 334 335 335 335 333 333 334 333 332 332 332 331 330 332 332 331 331 331 332 332 331 333 335 337 337
319 319 318 318 319 320 320 320 319 319 320 320 321 324 324 329 338 341 342 343 344 345 344 345 346 345 346 346 344 345 345 344 344 343 342 341 340 338 336 335 334 335 336 336 336 335 335 334 333 333 334 335 337 337 337 338 338 338 338 337 336 335 336 339 338 337 336 335 334 334 335 334 333 334 335 335 334 334 334 333 333 333 332 332 331 331 331 332 333 333 333 332 333 333 333 335 336
318 319 318 318 318 318 320 320 319 319 320 321 324 321 322 334 342 339 338 339 340 339 339 341 341 341 344 344 341 342 343 342 343 342 342 341 339 338 337 336 335 336 337 337 337 336 335 335 334 334 335 337 337 337 337 337 337 338 338 338 338 337 337 338 337 336 336 336 336 335 334 334 334 334 335 334 334 334 335 334 333 333 333 331 331 332 333 334 334 334 334 335 336 334 333 335 336
318 317 317 317 315 316 319 320 318 320 319 323 324 318 327 340 339 338 339 339 337 332 333 334 334 334 337 338 337 337 339 338 339 341 342 340 340 339 337 336 337 337 338 338 337 337 337 338 338 337 338 337 337 337 337 337 338 338 338 338 338 339 338 338 337 337 336 336 336 336 335 333 333 333 332 332 333 334 337 337 335 333 332 332 332 333 333 333 334 335 334 334 334 334 334 335 335
317 315 314 315 315 315 319 319 318 320 318 323 323 320 333 340 336 336 338 340 339 334 333 333 333 335 335 335 336 336 337 338 338 339 339 339 339 338 337 338 338 337 338 338 337 337 338 339 339 338 338 337 337 337 337 337 338 339 338 337 338 338 339 338 337 336 336 335 335 336 333 330 332 331 329 331 332 334 336 338 336 333 331 332 332 332 332 334 335 334 334 333 333 333 335 336 336
316 315 313 313 314 315 318 318 319 320 319 323 322 323 337 339 334 334 337 340 339 336 336 335 334 336 337 335 336 337 338 338 338 337 337 338 338 336 336 337 337 335 337 337 337 338 338 338 338 338 337 337 337 336 336 336 336 339 338 337 337 337 338 338 336 335 335 335 335 335 333 330 331 331 331 330 332 333 335 337 335 333 332 332 331 331 333 336 336 334 333 333 334 334 334 335 337
314 315 314 314 315 314 316 317 320 319 319 324 323 327 337 339 335 336 338 339 339 338 337 338 337 336 336 335 336 338 338 338 337 336 337 338 337 337 337 337 336 335 336 337 338 338 337 337 337 337 336 335 336 336 337 336 337 338 337 336 337 337 337 336 335 335 335 335 336 335 334 332 331 331 332 332 333 334 335 335 335 334 334 334 333 333 334 337 337 334 333 333 334 334 333 334 335
314 314 313 314 315 314 316 317 319 319 319 325 323 329 337 337 336 338 340 339 340 340 338 338 338 338 337 337 337 337 336 337 336 336 337 336 337 337 338 337 337 336 337 337 338 338 337 337 336 336 335 334 336 336 337 337 337 337 336 336 337 337 336 335 335 336 335 335 336 335 335 334 333 334 333 333 333 334 335 335 335 335 334 334 335 334 335 336 335 333 332 332 332 333 333 334 334
315 315 314 315 314 314 318 319 320 319 319 324 324 330 337 337 336 339 340 340 340 340 339 339 339 340 338 337 337 337 337 337 336 337 337 335 335 337 338 337 337 337 337 337 337 337 337 336 336 336 334 334 335 335 337 338 338 337 337 337 337 337 337 336 335 336 336 336 336 336 335 335 335 335 334 334 334 334 335 335 335 335 335 335 335 335 335 335 334 333 332 332 333 333 333 334 333
317 317 315 315 315 315 319 320 320 319 321 323 324 332 337 339 338 339 340 340 340 340 341 341 339 339 338 337 338 337 336 336 337 338 338 335 334 337 338 337 337 337 337 337 336 336 336 335 335 334 333 335 336 336 337 339 339 338 337 337 338 337 336 335 335 335 335 335 335 335 335 335 335 335 334 335 335 334 335 336 335 334 335 335 335 335 335 334 334 333 333 333 334 334 334 333 332
317 317 316 314 316 316 319 322 320 319 323 322 324 334 337 338 335 336 337 337 340 341 341 340 339 338 338 339 339 337 336 335 336 338 337 335 334 336 337 337 338 338 337 336 336 335 335 336 335 332 332 336 336 336 336 338 338 338 337 337 336 336 335 335 334 332 331 332 332 332 332 332 333 333 334 334 334 334 334 334 335 334 334 334 334 334 334 333 333 334 333 333 334 334 334 333 332
318 317 315 314 316 318 319 322 322 320 322 323 325 334 336 336 333 333 335 335 339 340 340 339 339 339 339 340 339 337 336 335 336 337 337 337 336 336 336 337 338 337 336 336 336 336 335 336 336 334 334 336 336 336 336 337 337 338 337 336 335 334 333 333 332 330 330 330 331 331 330 330 331 331 331 331 331 330 330 331 332 333 333 333 333 333 333 333 332 332 332 332 332 333 333 334 333
317 318 315 314 316 316 316 320 323 322 322 326 330 333 336 336 333 333 334 335 338 338 340 340 339 339 339 340 339 337 337 336 336 336 336 336 337 336 336 337 337 336 336 336 336 336 335 335 336 335 335 336 336 336 336 336 335 335 335 334 333 332 331 332 331 332 332 332 332 332 330 330 330 329 328 328 328 328 328 327 328 329 329 330 331 330 331 330 330 329 329 329 329 330 331 332 332
317 318 316 315 316 317 318 321 323 323 322 328 332 331 333 336 335 335 335 336 337 338 340 340 339 338 338 340 339 337 337 336 336 336 335 336 336 336 336 336 335 335 335 335 335 335 335 335 335 335 336 336 335 336 337 336 335 333 333 333 333 332 332 332 332 332 333 332 332 331 329 329 329 328 328 328 328 328 327 326 326 325 325 325 326 326 327 327 328 328 327 328 327 328 328 328 329
316 317 317 316 318 319 322 322 322 320 319 325 332 327 327 333 337 337 338 335 336 339 339 339 338 338 338 339 338 337 337 336 336 336 335 336 336 335 335 335 334 335 334 334 334 335 335 334 335 335 335 335 336 336 335 335 335 335 334 334 333 333 334 333 332 332 331 330 330 329 328 328 328 328 328 327 327 326 325 325 325 324 323 323 322 323 324 324 325 326 325 325 325 325 326 326 327
314 316 318 317 320 320 321 321 320 318 317 324 330 325 323 328 333 337 339 337 337 338 337 337 338 338 338 338 336 336 336 335 335 335 335 335 335 334 334 335 335 334 333 333 333 333 333 333 333 333 332 332 333 333 333 333 333 333 333 333 332 334 333 332 332 331 329 329 328 328 328 328 328 327 327 326 325 324 324 323 322 322 321 320 320 321 321 319 319 321 321 321 322 322 323 324 325
313 317 317 317 319 320 320 321 320 319 318 324 328 323 321 324 329 335 338 338 338 338 335 334 336 336 336 336 335 334 334 334 335 335 335 335 334 334 334 334 334 333 333 332 332 332 332 332 332 331 330 330 330 329 330 331 330 330 330 330 330 331 331 330 329 328 329 329 327 327 327 327 327 326 325 323 322 321 320 319 318 317 316 315 317 318 316 314 313 315 316 318 319 320 321 321 322
316 318 317 319 320 319 322 322 321 319 317 320 323 323 319 320 327 334 337 338 338 338 336 334 335 335 334 335 335 334 333 334 334 334 335 335 334 333 334 334 333 333 332 332 332 331 331 330 330 329 329 329 328 327 327 328 328 328 329 328 328 327 327 327 326 326 327 327 326 325 325 325 324 323 321 319 318 317 316 316 315 313 312 312 314 314 312 312 312 313 315 315 316 316 317 318 320
318 318 318 320 320 321 324 323 319 318 317 317 321 323 319 317 327 335 334 336 337 338 337 335 335 335 335 335 334 333 333 334 334 334 334 334 333 333 334 334 334 333 332 331 331 330 329 328 328 328 328 327 326 325 325 326 326 326 327 326 326 325 325 324 324 325 325 324 324 324 323 323 321 319 317 316 315 315 315 314 313 311 311 311 311 311 310 310 310 313 313 311 311 312 313 314 316
318 317 317 318 320 321 322 321 319 317 315 316 319 323 321 317 325 333 332 333 336 336 337 337 336 335 335 335 334 333 333 333 333 334 333 332 331 332 333 334 334 333 332 331 330 328 327 326 326 326 326 325 325 324 324 324 324 324 324 324 323 323 323 323 323 323 324 323 322 322 321 319 317 316 315 314 314 314 313 312 310 309 308 308 308 308 307 306 308 311 310 308 309 310 310 312 314
317 317 316 316 317 319 319 318 318 316 314 316 320 323 323 317 320 330 332 330 331 332 334 336 336 336 335 335 333 332 333 333 333 332 330 329 329 329 330 331 332 332 331 329 327 326 325 325 325 324 323 323 323 322 322 322 322 322 322 322 321 321 322 322 321 321 321 321 320 319 318 317 315 314 314 314 313 312 310 307 306 306 305 304 304 303 303 302 304 305 304 305 306 307 309 310 311
317 316 314 314 314 317 318 317 316 315 315 318 320 321 321 320 321 330 331 328 328 330 332 335 336 337 335 334 333 332 333 334 332 330 328 327 328 327 328 329 331 330 328 327 325 325 324 324 323 323 322 321 321 321 321 320 321 321 320 320 319 319 320 319 319 319 319 319 318 318 317 315 314 313 313 312 310 306 304 303 302 301 300 299 299 299 299 299 299 299 299 301 302 302 304 305 307
316 315 314 314 314 316 318 317 316 316 316 318 320 319 318 319 323 329 330 328 329 329 331 334 336 337 335 333 333 332 333 333 331 329 328 327 328 328 328 329 330 328 326 325 324 323 323 322 322 321 321 320 320 320 320 319 319 319 319 319 318 317 317 317 317 317 317 317 317 316 315 314 313 312 311 309 305 302 300 299 298 298 298 298 298 298 298 298 298 298 298 298 298 298 298 299 301
315 316 316 314 314 315 316 315 315 316 316 317 318 318 316 317 322 328 328 328 329 329 330 332 336 336 334 333 333 332 333 332 331 330 329 328 328 328 328 328 328 326 325 324 323 322 322 322 321 320 320 319 319 319 318 318 317 317 317 317 316 316 315 315 315 315 315 315 315 314 313 313 312 310 306 302 300 298 298 297 297 297 297 297 297 297 297 297 297 299 298 297 297 299 299 297 299
315 317 316 314 315 316 315 316 317 316 315 316 316 318 319 323 327 329 328 329 328 330 331 332 335 336 335 333 333 332 332 331 331 330 330 329 328 328 327 326 326 325 324 323 323 322 321 321 320 319 319 318 318 317 317 316 316 316 315 315 314 314 314 314 313 313 314 313 313 312 311 311 308 304 300 298 297 297 296 296 296 296 296 296 296 296 296 296 296 298 297 296 297 300 302 300 300
314 314 313 316 318 317 315 316 318 316 315 316 316 318 322 326 329 330 329 328 328 331 334 335 336 336 334 333 333 331 331 331 331 330 330 329 328 328 327 326 325 325 324 323 322 321 320 320 319 318 318 317 317 316 315 315 314 314 313 313 313 313 313 313 312 312 312 311 311 310 309 307 302 298 297 296 296 296 296 296 295 295 296 296 296 296 296 296 296 296 296 296 297 301 306 304 301
314 312 314 317 318 318 316 314 316 315 314 315 318 319 319 321 325 329 329 329 329 330 333 335 335 335 334 334 333 331 331 330 330 330 329 328 328 328 326 326 325 324 323 322 321 320 320 319 319 318 317 317 316 315 314 314 313 312 312 312 312 312 312 311 311 311 311 311 310 308 304 300 297 297 297 296 296 296 295 295 295 295 295 295 296 295 295 295 296 295 295 295 296 300 304 303 300
315 314 317 317 315 315 315 314 315 315 314 315 317 318 318 317 321 326 328 329 329 329 330 331 333 335 334 333 333 332 332 331 330 328 327 327 327 327 326 324 324 322 321 320 320 319 319 318 318 317 317 316 315 314 313 312 312 312 311 311 311 311 310 310 311 311 310 308 306 302 298 296 297 297 297 298 298 297 297 297 296 296 295 295 295 295 295 295 295 295 295 295 296 298 301 302 302
315 316 316 316 315 315 314 315 315 315 315 315 316 317 317 318 324 326 327 327 329 329 329 330 333 335 333 332 332 333 333 331 329 327 326 327 326 326 324 323 322 321 320 320 319 318 318 318 317 316 316 314 314 313 312 311 311 311 310 310 310 310 310 310 309 308 305 302 300 298 296 296 297 297 297 298 299 299 298 298 298 297 296 295 295 295 295 295 295 295 295 295 295 297 300 301 302
313 314 314 314 316 316 316 316 315 314 314 314 315 315 316 321 327 327 326 327 327 328 328 330 333 334 332 332 332 333 332 329 328 327 326 326 324 324 323 322 321 320 319 319 319 318 318 317 316 315 314 313 313 312 311 311 310 310 310 309 309 308 307 306 304 301 298 298 297 297 296 297 297 298 298 298 298 299 299 298 298 296 295 295 295 295 295 295 295 295 295 295 295 296 299 300 301
313 314 314 314 315 315 315 315 314 314 313 314 314 313 317 327 331 327 325 326 326 326 328 329 333 334 331 332 332 332 331 328 327 326 325 324 323 323 322 321 320 319 319 318 318 317 317 316 315 314 313 312 312 311 310 310 310 309 309 308 307 304 300 299 298 297 297 296 296 296 296 296 296 298 298 298 298 299 300 299 297 295 295 295 294 294 295 295 295 296 297 297 297 297 299 301 302
Wind_Speed
8 8 7 7 8 11 11 8 7 6 5 10 9 9 8 1 5 9 8 7 4 5 8 11 9 8 8 9 3 13 15 9 4 3 4 11 15 17 18 21 20 19 18 20 20 17 16 12 10 9 8 7 8 11 12 13 13 14 15 16 16 16 17 16 16 14 14 13 12 12 11 11 10 10 10 10 10 9 9 9 10 9 9 9 9 10 9 8 9 9 10 10 10 12 12 11 11
7 6 5 7 8 9 10 7 7 7 8 9 9 10 7 3 5 7 6 8 7 8 10 11 8 7 7 9 4 8 15 16 12 12 15 17 18 17 20 22 20 19 19 20 20 18 16 13 11 10 9 8 10 11 12 12 13 14 15 16 16 16 16 15 14 13 13 12 12 11 11 10 10 10 10 9 9 9 9 9 9 9 9 9 9 8 8 8 8 8 9 9 9 9 10 11 11
6 5 4 7 8 9 10 7 7 9 9 9 9 9 8 8 8 7 8 8 8 9 9 7 6 5 7 8 2 6 10 13 15 18 19 19 19 19 20 21 19 19 18 19 18 17 17 14 12 11 10 9 11 12 12 12 12 14 14 15 16 16 15 14 13 12 12 12 11 11 10 10 9 9 9 9 9 9 9 9 9 8 8 8 8 7 7 7 7 7 7 7 7 7 8 10 11
4 3 2 7 9 8 7 6 7 9 10 9 8 10 9 6 7 7 5 7 7 6 6 7 4 2 6 5 5 9 9 8 11 15 18 17 18 20 21 20 19 18 18 17 15 16 17 14 13 12 11 10 11 12 12 12 12 13 14 15 15 15 14 13 13 12 11 11 10 10 9 9 9 9 8 9 8 8 8 8 8 7 7 6 6 5 5 5 4 5 5 6 6 6 7 9 11
3 4 4 5 7 6 5 5 7 9 9 9 8 13 9 4 3 2 3 5 5 4 4 7 3 3 3 9 6 4 6 5 10 12 16 18 18 21 21 20 19 18 18 17 14 16 17 14 14 12 12 11 10 12 11 11 12 13 15 15 15 14 13 13 12 11 11 11 10 9 9 8 8 8 8 7 7 6 6 6 5 4 3 2 2 1 2 2 2 3 4 6 6 6 7 9 10
4 6 7 7 8 6 6 7 9 10 10 11 10 14 10 4 3 2 2 3 3 3 4 7 4 3 7 10 11 10 6 6 11 11 16 19 20 21 21 19 19 19 19 16 12 17 18 15 14 12 12 11 11 12 11 12 12 14 16 15 15 14 13 12 12 11 10 10 10 9 8 8 7 7 6 5 5 4 3 3 3 3 2 2 2 2 2 2 2 3 5 8 7 7 8 9 10
5 7 8 8 9 6 7 9 11 11 11 14 12 14 12 5 2 5 5 4 3 4 4 5 4 2 7 8 10 12 9 7 9 11 17 20 20 20 20 19 19 19 18 16 13 18 19 15 14 12 12 11 11 11 11 12 13 15 16 15 14 14 13 12 11 11 10 9 9 8 7 6 5 5 4 3 3 3 3 3 3 3 2 2 1 1 1 1 1 4 8 9 8 8 9 9 10
7 9 9 7 7 6 8 10 11 11 12 16 14 13 14 6 1 6 6 4 3 2 4 4 7 3 4 6 7 8 8 10 12 15 18 21 20 19 19 19 20 18 17 16 15 19 18 15 15 13 12 11 11 11 11 12 13 16 16 15 14 14 13 12 11 10 9 8 8 6 6 5 3 3 2 2 2 2 2 2 2 2 2 1 2 2 2 2 2 6 10 10 9 9 9 9 10
9 10 9 7 7 8 10 11 12 12 14 16 15 12 11 8 5 7 7 6 5 5 5 4 6 4 6 6 9 7 8 11 16 18 18 20 20 19 19 18 19 18 17 15 15 20 19 16 15 13 12 11 11 11 12 12 14 16 15 14 13 13 12 11 10 9 8 7 6 5 4 3 2 1 1 2 2 2 2 2 3 3 2 3 3 4 5 4 5 9 11 11 10 9 9 9 10
11 11 8 7 7 10 11 12 12 11 15 16 12 9 6 9 10 9 9 9 6 5 4 3 4 9 9 8 9 7 11 15 16 17 18 19 19 18 18 19 20 17 16 13 15 20 19 16 15 13 12 11 11 11 11 13 15 16 15 14 13 12 12 10 9 8 7 6 5 4 3 2 1 0 1 1 2 2 2 3 3 3 3 4 4 5 5 6 8 10 12 11 10 8 8 8 9
11 11 10 8 9 11 10 12 12 12 17 10 6 7 5 8 11 10 10 10 7 6 4 4 6 13 12 9 9 9 14 17 17 18 19 18 18 19 19 20 19 16 15 13 14 19 18 17 15 13 12 11 11 11 11 13 15 15 14 14 13 12 11 9 8 7 6 5 4 3 2 2 1 0 1 1 2 2 3 3 4 3 4 5 5 6 6 6 9 12 12 11 10 8 7 7 8
10 9 9 8 10 11 11 13 12 15 14 5 6 9 8 9 10 10 11 10 9 8 7 7 7 14 11 8 9 12 16 17 19 19 18 18 18 18 19 20 17 15 15 13 13 17 17 16 15 13 12 11 10 11 11 12 15 16 15 14 13 12 10 9 8 6 5 4 3 2 1 1 1 1 1 2 3 3 4 4 4 4 4 5 5 6 6 7 8 11 12 11 10 8 7 6 7
12 10 8 8 10 11 14 14 13 15 11 7 9 8 7 8 9 10 10 11 10 9 9 8 9 13 9 9 12 15 17 17 20 19 18 18 17 18 18 18 17 16 16 14 14 15 14 13 14 13 12 11 11 11 11 12 14 16 16 15 13 12 10 9 8 6 5 4 3 1 1 1 1 1 2 3 4 4 4 4 5 5 5 4 5 5 6 7 8 9 10 10 9 8 7 6 6
14 13 10 9 10 12 13 12 13 12 10 11 6 11 7 7 8 10 10 11 11 11 9 9 12 13 11 11 13 18 18 17 18 18 18 17 17 18 17 18 18 17 16 15 15 14 12 11 11 11 11 10 10 11 12 12 13 16 17 15 14 12 10 9 8 6 5 4 2 0 1 1 2 2 3 4 5 5 4 5 5 6 5 5 4 5 6 7 7 7 8 8 8 8 6 5 5
15 15 10 9 9 12 12 11 14 13 11 5 7 10 7 7 7 9 10 11 11 11 7 11 12 9 12 11 12 20 19 17 18 17 18 17 17 18 18 17 17 17 16 15 15 14 13 11 10 10 9 8 8 9 11 13 14 17 18 15 14 12 10 9 7 6 4 2 1 1 2 2 3 4 4 4 5 5 5 5 5 6 5 5 4 5 5 6 6 6 6 6 5 6 5 4 3
15 14 8 8 11 12 12 11 12 14 10 4 8 6 5 7 8 9 10 12 10 10 7 10 10 7 12 13 14 23 22 20 19 17 18 18 17 17 18 18 17 16 15 15 15 14 13 12 11 11 10 9 7 7 10 13 14 17 19 16 14 12 10 8 6 5 3 2 2 3 5 4 4 6 5 3 5 5 5 4 5 5 5 5 5 5 5 4 4 4 4 3 3 3 3 2 1
14 12 8 8 11 12 11 13 11 11 8 7 7 7 5 6 9 9 9 13 12 10 10 9 8 8 9 13 20 27 24 22 21 20 20 18 16 17 19 18 16 14 14 14 13 13 14 13 12 11 12 11 9 7 9 13 15 17 19 16 14 12 9 8 5 3 1 2 4 5 6 5 4 5 3 1 4 5 4 4 4 5 5 4 5 5 5 4 3 1 2 1 0 1 3 2 1
12 8 9 10 10 12 12 15 11 9 8 6 5 4 5 6 7 9 8 12 14 11 14 10 10 12 15 20 25 26 25 24 23 22 20 18 17 18 20 19 16 15 15 13 12 13 13 13 12 11 11 11 10 8 8 13 15 15 16 15 11 9 8 7 5 2 2 4 5 6 7 6 3 2 2 2 3 4 4 4 4 4 5 5 5 5 5 5 3 2 2 2 2 3 4 3 2
13 7 9 10 10 12 12 11 5 5 5 4 3 1 4 7 4 9 10 13 16 13 14 13 14 15 20 24 24 24 26 24 23 23 21 20 19 19 19 19 18 17 15 14 13 13 12 12 12 12 11 11 9 7 8 11 13 12 13 13 10 9 7 6 5 3 3 4 4 5 6 5 2 2 4 4 2 3 4 4 4 5 5 5 5 5 5 5 5 3 3 4 4 4 4 3 4
15 11 8 10 13 11 5 5 3 3 3 1 3 2 3 7 6 9 10 13 16 14 13 15 15 17 19 22 22 23 25 24 24 23 22 22 21 20 19 19 18 17 16 14 13 12 11 10 11 12 11 10 8 8 9 10 11 12 11 12 11 9 6 5 5 5 5 6 5 4 4 3 2 1 2 2 1 3 3 3 4 4 5 6 6 5 5 5 4 4 4 5 5 4 3 0 6
13 13 10 10 12 8 4 6 7 4 3 3 4 5 7 9 10 11 12 13 13 15 17 18 20 22 22 23 23 25 26 25 24 23 23 22 21 20 19 19 17 17 16 13 13 10 10 11 11 11 11 12 10 10 11 12 12 12 11 11 10 9 7 6 6 7 7 7 5 3 2 1 1 0 1 1 1 1 1 3 3 4 5 6 6 6 7 6 5 6 5 5 5 3 3 6 7
11 13 17 15 7 5 6 7 7 4 4 6 6 8 8 7 11 12 14 12 8 13 19 20 22 23 23 24 25 26 27 26 25 24 24 23 22 21 20 19 17 16 15 13 13 11 11 12 12 12 13 14 13 12 13 13 12 12 11 9 8 9 9 8 8 8 7 5 4 3 3 2 2 1 1 1 0 0 2 2 3 4 4 4 4 4 5 6 6 7 6 7 4 2 7 8 8
11 11 18 18 8 6 6 6 6 6 8 10 8 8 6 7 10 12 15 11 3 7 17 22 22 23 22 24 26 27 27 26 25 25 24 23 22 21 20 20 18 17 15 14 13 12 13 14 13 13 14 15 14 14 14 13 11 10 11 10 9 9 9 11 9 7 6 6 5 4 3 3 1 1 2 2 1 1 2 2 2 3 3 3 4 1 2 4 3 4 5 6 5 5 7 7 8
13 10 14 15 11 9 6 5 7 8 11 10 8 7 6 10 9 11 15 10 6 6 14 21 22 21 23 24 24 26 26 25 25 24 23 22 22 21 20 19 18 18 16 15 15 13 14 14 14 13 13 14 15 15 14 14 11 10 12 12 11 10 10 9 8 6 6 6 5 3 3 3 1 1 2 2 2 2 3 2 1 2 2 3 5 3 3 4 3 4 5 5 6 6 7 8 8
15 13 10 11 12 13 10 8 8 11 11 9 10 10 10 12 10 11 12 10 10 9 14 19 21 22 24 24 24 25 25 25 24 23 22 21 21 20 20 19 17 17 17 17 16 15 15 15 15 15 15 14 15 15 14 15 14 13 13 11 11 11 10 9 7 7 6 5 4 4 3 3 2 1 1 1 2 2 3 2 1 2 2 2 3 3 3 4 3 4 5 5 6 6 7 8 8
15 18 12 8 11 14 13 13 12 11 11 10 11 11 12 13 11 10 10 10 9 11 14 20 24 25 24 24 24 25 25 25 24 23 22 21 20 20 19 18 18 18 18 17 16 16 16 16 17 17 16 15 14 16 16 15 14 13 12 11 11 11 10 9 7 6 5 4 4 3 3 3 2 2 1 1 2 2 2 2 2 2 3 3 2 3 4 4 4 4 5 5 6 7 7 7 8
11 18 18 11 10 12 13 15 14 13 13 12 12 12 12 13 12 8 9 10 9 11 14 18 22 23 23 23 25 25 24 25 24 22 21 20 19 20 19 18 18 18 18 18 17 17 17 17 17 16 15 14 13 14 15 14 13 12 12 12 12 10 10 8 6 5 4 3 2 1 2 2 1 2 1 1 1 2 2 2 2 2 3 5 4 4 5 5 5 5 5 6 6 8 8 7 9
8 12 17 14 11 11 12 14 14 13 12 13 14 13 11 12 11 6 7 9 10 12 14 16 18 21 23 24 24 23 22 22 21 20 20 20 20 19 19 18 19 18 17 17 16 17 18 17 16 14 13 14 14 14 14 14 13 12 11 11 10 9 9 8 6 5 4 2 1 1 1 1 1 1 0 1 1 2 2 3 3 3 4 5 4 4 5 6 5 5 6 7 8 8 8 8 9
11 10 13 14 14 13 13 14 15 13 11 15 15 11 11 11 4 7 8 3 4 12 14 14 18 20 22 23 22 20 19 19 18 19 19 18 18 18 17 17 18 18 16 16 16 16 17 16 15 14 13 16 16 14 14 14 13 13 11 9 9 9 9 7 6 4 3 2 2 1 0 1 0 0 0 1 1 2 3 3 4 4 5 5 5 5 5 6 6 6 7 7 8 9 9 9 9
12 10 11 11 12 12 16 16 16 16 12 15 14 10 10 5 11 15 12 6 7 10 9 8 11 11 12 18 20 16 15 16 16 16 17 17 16 17 17 17 17 16 15 15 15 16 16 15 14 14 14 16 16 14 15 13 13 13 11 9 9 9 8 7 6 4 3 3 2 1 1 1 0 0 1 1 1 2 3 4 5 5 5 5 5 6 5 6 6 7 7 7 8 9 9 8 9
11 11 10 10 10 11 17 18 17 17 13 17 15 10 5 8 15 14 14 13 13 18 19 17 8 3 9 11 12 12 12 13 11 9 12 15 17 16 15 15 13 13 14 16 17 16 15 14 13 13 13 14 14 13 13 13 13 13 11 10 10 9 8 7 6 4 4 3 2 1 1 1 1 1 1 1 2 2 3 4 5 5 6 6 6 6 6 6 6 7 8 8 9 10 9 9 10
10 11 10 11 10 10 16 20 19 17 13 18 16 8 4 9 8 7 11 15 16 16 8 7 11 12 15 16 15 15 13 12 8 5 5 10 18 19 16 15 13 13 14 14 15 15 13 13 12 12 12 12 13 13 12 12 13 12 11 11 10 10 9 7 5 4 3 2 2 1 1 1 0 0 1 1 1 2 2 3 5 6 6 6 6 6 6 6 7 8 8 10 10 10 10 10 11
11 11 10 12 12 11 13 18 20 19 14 16 17 8 6 7 5 5 6 12 15 15 12 13 18 21 17 15 19 18 14 11 6 4 4 8 17 18 17 17 13 11 11 10 12 12 10 10 9 10 11 10 11 12 11 11 12 12 11 10 9 9 8 7 5 4 3 3 2 1 1 0 1 0 0 1 2 2 3 4 5 6 6 6 6 6 6 6 8 8 9 9 10 10 11 11 11
10 11 11 12 15 14 10 15 18 20 16 13 17 10 6 9 12 12 10 10 14 15 16 17 20 23 23 22 23 20 15 11 6 4 5 10 16 16 16 15 11 10 10 11 10 9 9 9 9 9 9 8 9 11 11 11 12 10 9 9 8 7 7 6 5 4 3 2 2 2 1 0 0 0 1 2 2 2 3 4 5 6 6 6 6 6 7 6 7 9 10 10 10 10 11 11 12
12 12 11 11 15 16 12 13 15 19 17 13 16 11 9 11 13 14 14 14 14 16 16 15 16 20 22 21 22 21 18 14 11 8 9 14 14 12 13 11 10 10 10 9 8 8 10 10 9 8 8 8 8 10 11 10 11 9 9 8 7 7 6 6 5 4 3 3 3 2 2 1 1 0 1 2 2 2 3 4 5 5 5 6 6 6 7 7 8 10 11 12 11 11 11 11 12
15 15 14 13 12 15 14 13 16 19 16 14 15 9 10 10 12 13 16 16 15 17 17 14 14 16 18 15 15 20 21 20 17 12 15 18 13 10 12 10 10 11 10 9 8 8 10 10 10 8 8 7 7 8 8 8 9 9 9 8 7 7 6 5 5 4 4 4 3 2 2 2 2 1 1 2 2 2 2 3 4 5 5 5 6 6 6 7 8 9 10 10 10 10 10 11 12
16 15 15 15 12 13 14 10 16 19 13 14 15 11 11 9 10 10 11 13 15 18 18 15 14 15 16 14 13 16 18 21 20 17 17 18 16 13 12 12 13 13 12 11 10 8 9 10 10 9 8 6 6 7 7 9 8 8 9 8 7 6 5 4 3 4 4 4 4 4 3 2 2 1 1 0 1 1 1 3 4 4 4 5 5 5 6 6 7 7 8 8 8 9 10 11 12
14 14 14 14 12 11 11 8 13 17 12 13 14 13 11 8 8 6 5 7 11 16 17 17 17 15 15 16 17 17 17 18 19 20 20 18 18 16 13 14 15 13 11 11 11 10 10 11 11 11 9 7 6 7 8 9 8 8 8 6 6 6 5 3 2 3 4 4 4 3 2 2 2 1 2 3 4 4 3 3 3 4 5 5 5 6 6 6 6 6 6 7 7 8 9 10 13
10 12 12 12 12 11 12 10 13 14 10 9 12 10 9 8 7 7 6 7 8 11 14 17 18 17 17 17 19 19 19 18 18 20 22 20 19 18 17 17 16 15 13 12 11 10 10 10 11 11 10 7 6 6 7 8 8 8 7 5 4 4 4 4 2 2 2 3 3 3 2 3 3 4 5 5 6 6 5 5 5 7 8 8 9 9 9 8 8 8 8 8 8 8 8 8 11
9 11 10 11 14 12 10 11 14 14 10 7 9 8 8 9 7 8 12 13 12 13 14 15 17 17 19 19 19 20 21 20 19 19 21 22 21 20 20 20 18 16 14 13 11 10 10 9 8 9 8 6 6 6 7 7 6 6 5 5 4 3 4 4 4 3 3 4 4 4 4 4 5 7 7 6 6 6 7 6 6 8 10 10 11 11 12 11 11 12 12 12 12 12 11 10 8
12 13 10 12 15 12 9 10 14 14 12 10 10 6 5 11 10 9 13 14 14 15 15 14 15 17 18 19 18 19 20 19 19 19 19 21 22 21 22 20 18 15 14 12 9 9 10 9 9 8 7 7 7 7 7 6 5 4 4 5 6 6 6 4 4 3 4 4 5 6 6 6 6 6 7 7 7 8 9 9 7 7 7 9 10 10 11 11 11 12 12 13 13 13 14 14 11
12 14 13 14 13 13 11 14 14 11 11 12 13 7 4 9 11 10 11 12 13 14 14 14 15 17 17 18 17 18 19 18 19 19 19 21 22 20 20 19 17 16 16 14 10 10 10 9 9 8 8 8 8 7 6 6 5 5 5 6 6 5 4 2 2 4 4 4 6 8 7 7 7 7 9 9 10 11 11 11 9 7 6 8 8 8 8 9 10 10 11 11 11 11 12 13 13
9 13 14 14 11 16 16 17 14 9 10 13 14 10 5 8 11 11 12 13 14 13 12 14 16 17 17 17 18 19 19 19 19 18 18 22 22 20 20 21 19 17 17 16 14 11 9 7 7 7 7 8 8 6 5 5 4 4 5 4 3 2 3 4 6 7 7 7 8 8 7 7 8 9 11 12 12 13 12 10 9 7 6 6 6 6 6 7 7 7 8 8 8 8 9 10 11
7 13 12 10 9 17 17 16 13 9 9 12 15 13 7 7 10 14 15 13 14 14 14 15 17 18 18 18 18 19 19 18 19 18 17 20 21 21 22 21 19 18 19 18 14 11 9 7 8 7 7 6 6 5 5 5 4 5 5 4 4 3 4 7 8 8 9 8 7 7 7 8 9 11 12 11 9 8 7 6 5 5 4 4 5 4 4 5 4 4 5 5 5 5 6 7 9
8 13 14 9 9 13 14 13 11 11 10 10 13 14 10 7 8 14 15 14 15 15 16 16 17 18 19 20 19 19 19 17 17 18 18 19 19 21 21 19 19 21 21 16 12 12 11 10 9 8 7 6 6 6 6 6 5 5 5 4 3 2 3 4 4 5 6 5 4 6 7 7 10 11 9 5 4 5 5 5 6 7 7 7 6 4 4 6 6 6 7 7 6 5 5 6 7
5 13 15 10 9 10 12 12 10 10 10 10 13 15 11 7 7 11 12 13 14 14 14 16 19 19 18 20 19 18 20 19 17 18 18 18 19 20 20 19 21 23 18 13 12 13 12 10 9 7 6 6 6 7 7 7 6 5 5 5 3 2 2 1 2 4 4 2 4 6 7 7 7 6 4 5 6 6 6 7 7 8 9 8 7 6 6 7 7 7 7 7 7 6 6 5 5
7 11 13 11 10 9 9 9 9 9 10 11 14 16 13 9 8 11 11 12 13 13 12 14 19 22 20 20 19 18 21 20 18 18 17 17 19 19 20 21 22 20 16 13 13 12 10 9 8 7 7 6 5 6 6 6 6 6 5 5 4 3 2 1 2 4 4 2 3 4 4 3 2 3 5 6 6 6 7 9 9 10 9 9 8 8 8 9 8 7 8 8 8 8 7 6 6
8 9 11 10 9 8 8 8 8 9 10 10 14 16 15 12 8 11 13 14 15 14 14 14 17 22 22 20 18 19 20 20 20 19 18 18 18 18 20 22 22 19 16 15 12 10 9 8 8 7 7 7 6 6 6 6 6 5 5 5 4 3 2 2 3 3 4 3 2 1 2 3 4 5 5 6 7 9 10 10 10 10 10 9 9 9 9 10 9 8 9 9 9 8 8 8 7
9 10 11 10 9 8 8 10 9 9 9 9 15 17 14 11 7 11 16 17 17 17 16 17 19 21 23 21 19 19 21 21 21 19 18 19 19 19 19 21 22 18 15 13 11 10 9 9 9 8 8 7 6 6 6 6 6 5 5 4 4 4 4 4 5 5 5 5 4 4 5 5 6 6 6 6 9 11 11 11 11 10 10 10 10 10 10 10 10 11 11 10 10 10 10 10 9
11 11 11 10 9 8 9 9 8 8 9 9 12 14 12 9 7 14 17 16 18 20 21 22 24 23 23 21 20 20 22 22 20 19 19 18 19 20 20 20 20 16 13 12 11 10 9 9 8 8 8 7 7 6 6 6 5 5 5 5 5 5 5 6 6 6 6 6 6 5 6 6 6 6 7 8 11 12 12 11 11 11 11 11 11 11 11 11 12 13 14 14 14 15 16 15 13
13 11 11 10 8 8 8 8 9 9 10 9 8 8 10 7 3 9 14 15 18 21 24 26 25 24 23 20 20 21 22 22 20 19 19 18 19 20 20 20 17 14 13 11 11 10 9 9 9 8 8 7 6 6 5 5 4 4 5 5 5 5 5 6 7 7 7 7 6 6 7 6 6 8 10 11 11 11 12 12 12 12 12 13 13 13 13 14 15 15 16 16 16 17 17 18 16
11 10 11 10 9 9 6 4 4 5 8 9 8 5 5 3 2 3 9 15 17 17 22 27 27 25 24 22 22 22 22 22 21 20 19 19 19 19 18 18 16 14 13 12 11 11 10 9 9 8 8 7 6 6 5 5 5 5 6 6 6 6 6 6 7 7 7 7 7 7 7 7 8 11 12 12 12 12 13 14 13 14 15 15 15 16 16 17 17 17 17 17 17 17 16 17 17
8 11 12 10 11 10 6 3 1 2 7 8 8 7 5 5 3 5 8 13 14 14 20 25 26 26 25 24 24 23 22 22 22 21 20 19 19 18 17 16 15 14 13 13 12 11 10 10 9 8 8 7 7 6 6 6 7 7 8 8 8 8 8 8 8 9 8 8 8 7 8 10 12 13 14 13 13 13 14 15 16 16 16 16 17 18 18 19 19 19 19 19 18 17 14 14 16
8 10 11 9 11 11 7 6 5 6 9 7 8 11 9 7 6 8 11 13 14 16 18 20 22 25 24 24 25 23 22 23 21 21 20 19 18 18 17 16 15 15 14 14 13 12 11 10 8 8 9 8 7 5 5 6 8 8 8 9 8 8 8 8 9 9 8 8 8 9 11 14 14 14 14 14 14 14 15 16 17 18 18 18 18 19 20 20 20 20 20 20 20 17 14 14 16
12 9 10 9 9 10 8 7 7 9 9 7 11 13 11 9 8 12 15 15 15 17 18 17 20 24 24 24 25 24 24 25 24 21 19 18 19 18 18 17 17 16 15 14 13 12 11 9 9 9 8 7 6 5 6 7 8 8 8 9 9 9 9 9 10 9 9 10 11 13 15 15 15 14 14 14 14 14 15 16 17 18 18 18 19 20 20 20 20 21 21 21 20 18 16 15 16
14 10 11 10 7 7 8 6 6 8 8 7 10 11 9 8 9 15 17 17 17 17 17 17 21 25 25 25 25 26 27 27 25 22 20 19 20 19 18 18 18 17 15 14 13 12 12 10 9 8 7 7 7 7 8 8 9 9 9 10 10 10 10 10 11 12 13 14 14 15 16 15 15 14 14 14 14 13 15 16 16 17 18 19 19 20 20 20 21 21 21 21 20 19 16 15 15
11 8 10 10 7 6 7 7 7 7 7 7 7 8 7 3 6 14 17 17 17 18 17 17 22 26 25 25 26 26 28 27 24 22 22 22 21 19 19 18 18 17 15 14 13 12 12 10 10 9 8 9 9 9 9 9 10 11 11 11 11 12 12 12 14 15 16 17 16 16 15 15 15 14 13 14 14 14 15 15 16 16 18 19 19 20 20 21 21 21 21 21 21 19 17 16 15
12 7 9 10 9 8 8 9 9 7 7 7 7 8 5 2 2 10 15 15 15 18 18 18 24 28 25 25 26 26 29 28 25 24 24 24 22 21 20 19 18 17 15 15 14 13 12 11 10 10 10 10 10 10 11 11 12 11 11 12 13 15 16 16 18 18 17 17 17 17 16 15 15 14 13 13 13 14 14 14 15 17 18 18 19 20 20 21 21 20 20 20 21 20 18 16 16
Wind_Direction
292 299 310 314 340 327 291 290 292 265 262 273 268 270 271 314 336 295 301 341 340 26 357 321 311 304 300 308 15 77 38 14 23 359 102 120 140 144 147 146 143 141 144 150 150 151 153 156 142 121 111 118 128 124 126 124 121 119 115 113 112 113 112 112 109 105 103 101 103 104 105 104 102 101 98 97 96 93 92 92 95 97 93 90 91 89 82 73 60 48 44 43 48 58 64 55 44
282 289 308 325 336 304 293 310 295 283 267 270 265 261 284 323 295 294 353 359 353 6 335 314 309 304 295 297 287 99 53 46 73 87 104 129 138 138 144 143 141 141 143 146 149 153 152 152 139 120 112 121 129 128 129 127 125 120 117 115 114 114 112 110 107 105 105 105 107 107 108 106 103 102 100 98 97 96 94 92 95 97 96 94 95 90 81 75 59 45 47 45 45 52 56 52 50
278 298 321 314 298 270 289 297 266 277 269 266 266 263 294 296 299 354 18 359 356 343 321 302 288 310 291 275 319 89 71 58 81 99 115 135 137 139 146 139 140 141 139 140 145 155 152 149 139 120 114 122 132 132 132 132 130 124 121 117 114 113 111 109 108 109 109 110 110 109 108 107 106 103 101 97 95 95 93 90 91 91 91 95 92 85 80 76 61 47 44 41 37 42 50 53 59
281 301 310 299 283 265 275 274 259 272 273 268 269 275 291 309 331 17 19 354 352 321 304 287 273 13 327 331 57 78 77 70 91 109 122 136 139 142 143 136 138 137 137 137 140 153 152 148 137 124 117 122 133 136 137 137 135 129 122 117 115 114 114 113 113 114 114 114 113 113 110 108 106 104 103 96 94 93 90 89 90 86 84 91 88 80 78 71 56 35 28 40 44 51 59 60 66
280 280 264 278 284 296 285 271 275 266 269 275 280 283 293 11 356 25 30 352 325 301 301 285 296 117 64 35 38 93 93 112 110 109 120 129 137 140 139 136 136 135 138 137 144 152 150 148 137 128 120 122 133 138 142 141 137 131 124 120 119 118 119 119 118 119 118 117 117 116 111 110 107 104 101 93 91 89 85 86 81 72 69 70 51 29 31 23 12 3 36 63 65 69 71 70 75
268 266 244 248 266 299 291 264 267 262 258 260 265 274 285 23 28 354 344 311 290 291 289 275 292 112 108 64 58 76 77 118 110 105 120 131 137 138 137 138 137 136 138 137 151 154 148 147 138 131 123 123 131 138 142 140 134 127 125 125 124 125 124 123 124 123 122 121 120 118 114 111 106 100 94 86 78 70 58 43 16 3 357 330 331 313 321 323 333 32 81 86 82 83 82 81 84
249 257 233 236 249 243 258 258 261 265 262 263 269 275 288 357 46 305 289 248 231 213 242 259 240 133 121 114 83 66 51 86 114 121 129 135 137 135 136 138 138 138 137 135 151 153 148 146 139 133 125 124 130 136 139 135 126 123 126 127 128 129 127 127 127 127 126 126 124 119 116 110 101 93 81 69 47 28 12 359 349 346 349 345 343 317 310 302 20 85 99 101 96 91 88 86 89
234 253 245 247 254 234 248 257 259 263 265 266 271 276 292 320 171 269 280 249 268 243 222 215 218 217 111 118 83 71 63 80 115 127 132 136 136 136 137 138 138 139 135 139 155 152 147 146 140 134 128 127 130 133 136 133 125 123 128 129 131 132 131 132 131 131 130 131 132 124 118 110 96 83 52 20 357 350 353 352 18 27 41 65 107 113 116 117 92 106 110 106 101 93 88 87 89
227 238 246 256 259 259 259 261 258 259 261 258 258 259 277 282 232 246 266 258 271 279 236 198 212 171 99 92 83 96 100 101 118 128 134 136 139 139 139 140 140 141 139 149 162 151 147 146 142 138 133 129 130 133 135 135 127 125 130 132 135 135 134 137 137 137 136 138 136 128 124 115 98 66 355 324 328 341 2 15 40 51 72 90 115 115 117 113 105 115 114 108 103 95 90 88 90
225 223 240 256 251 261 259 262 261 260 260 255 259 262 260 246 234 238 250 255 253 252 210 163 197 145 121 106 103 121 125 124 127 132 138 138 142 140 139 140 140 144 145 153 158 151 148 145 144 143 137 132 132 133 137 139 131 129 134 136 137 139 139 142 142 142 142 143 139 135 137 133 143 14 326 324 346 6 31 36 38 46 79 98 109 108 112 112 116 120 116 112 107 99 92 90 91
227 217 234 255 251 259 258 263 263 264 262 252 259 260 247 236 238 237 237 247 248 245 193 183 200 145 127 106 114 138 133 134 135 138 142 141 142 139 139 139 143 147 145 148 153 155 151 148 149 147 142 136 133 131 137 141 138 136 138 140 140 141 143 146 147 148 149 151 151 150 157 179 206 269 337 27 43 50 57 54 49 51 73 92 98 97 98 104 121 124 120 117 112 107 98 94 93
234 221 221 244 250 256 261 265 262 266 265 242 240 230 215 227 236 236 236 240 236 240 207 197 188 144 132 118 128 144 141 142 140 143 145 141 140 138 139 139 144 143 140 144 151 158 155 155 153 148 144 136 134 134 138 144 145 142 141 143 142 143 146 151 153 154 159 162 169 169 174 197 204 189 60 63 70 70 70 63 58 61 68 79 86 86 91 100 120 125 124 123 118 114 105 102 95
231 237 226 240 250 258 261 264 264 266 265 253 238 188 176 217 228 235 241 240 231 233 212 190 159 132 124 130 144 152 148 147 143 144 141 140 140 136 138 138 139 137 138 140 144 151 153 159 155 148 144 139 140 139 140 146 149 148 145 145 145 149 152 156 159 162 166 169 175 171 195 185 165 125 83 74 78 78 72 68 63 65 69 73 74 72 82 98 115 123 127 128 125 121 116 112 101
227 240 243 249 248 255 258 260 264 262 262 263 210 143 169 217 230 238 240 238 226 229 212 171 153 126 121 136 155 162 154 152 148 144 141 140 138 136 139 137 137 137 138 140 140 143 147 154 152 148 146 145 145 143 145 147 151 151 148 149 150 154 158 163 167 171 174 178 183 176 241 175 140 107 86 81 79 79 72 67 63 62 65 67 68 64 74 96 113 121 126 133 132 126 125 120 114
229 237 244 255 250 253 254 255 261 264 270 266 132 137 188 213 224 238 238 244 226 216 191 160 171 144 146 164 168 165 158 155 151 145 143 139 139 139 138 137 138 138 140 141 142 145 148 150 148 148 149 149 146 150 152 148 153 153 151 151 153 158 161 164 168 170 175 172 170 148 138 122 125 112 88 85 80 74 67 63 63 61 59 59 60 60 65 90 112 121 124 134 135 128 126 124 127
229 240 241 244 247 249 250 250 251 258 262 115 126 172 206 210 209 231 235 246 231 182 164 168 174 144 162 189 174 162 158 157 152 146 145 140 142 141 139 140 138 140 140 140 143 148 149 147 145 146 149 148 145 161 161 152 154 155 155 154 156 160 160 164 164 163 177 172 153 140 117 97 104 90 62 74 90 79 63 57 60 58 58 57 54 57 58 74 98 114 119 128 135 119 99 94 119
223 238 240 235 242 245 247 249 245 252 243 130 150 197 213 217 192 221 229 237 234 171 181 190 152 128 154 175 165 157 155 155 150 147 147 141 143 145 144 144 141 142 140 141 144 148 148 143 142 144 145 145 145 160 169 156 152 156 158 156 157 160 160 161 148 127 156 159 147 136 113 94 96 78 52 63 75 68 61 51 51 52 53 54 53 54 52 56 66 76 95 109 70 46 16 354 333
217 222 233 232 236 241 243 247 245 250 238 139 143 177 215 239 186 204 214 224 228 191 190 172 109 105 120 137 150 152 151 153 151 151 151 145 148 151 148 146 147 145 142 143 144 148 147 142 143 142 141 145 146 150 159 151 149 155 156 154 154 153 148 138 126 112 107 119 123 116 101 96 100 43 47 90 49 38 49 38 31 37 36 39 44 46 43 41 38 9 324 304 320 343 354 351 312
217 215 229 233 238 242 245 257 252 240 245 119 141 170 208 246 220 196 203 214 214 197 177 144 110 109 123 135 145 151 151 154 156 156 155 153 153 154 152 150 148 145 143 144 144 147 144 144 146 147 149 145 143 141 137 137 140 147 149 151 152 146 142 137 136 133 109 118 121 101 86 91 112 29 51 90 77 49 51 31 24 23 16 20 24 31 32 22 16 5 338 320 312 321 19 37 299
217 223 231 230 239 245 243 266 267 253 281 127 197 235 221 241 237 205 210 215 207 196 173 155 144 140 146 146 150 156 154 157 160 159 158 156 154 153 155 153 151 147 146 145 144 143 144 146 145 153 154 137 138 137 130 134 138 142 148 154 152 147 153 160 160 158 151 147 138 101 87 91 109 84 69 88 66 60 51 31 23 10 4 8 9 14 12 5 356 349 349 336 322 336 27 302 265
213 222 237 233 239 249 212 219 233 240 265 252 237 254 251 235 224 216 219 217 207 199 181 168 160 156 157 153 157 160 157 160 160 161 160 157 152 151 153 152 151 147 143 143 143 144 146 143 143 153 147 138 144 139 140 147 147 150 156 157 151 151 164 174 171 163 152 138 130 121 131 148 121 175 257 319 7 22 359 11 5 357 7 1 4 11 350 340 344 341 339 336 345 347 298 251 243
218 221 235 245 259 266 222 203 218 214 226 244 240 251 264 235 212 213 223 221 214 205 181 163 157 155 156 159 165 162 160 162 161 162 160 156 153 150 150 148 146 143 142 144 147 148 144 142 147 150 145 146 147 146 151 148 151 158 156 160 155 158 166 162 159 152 140 134 150 157 170 191 172 192 273 255 160 308 316 352 5 4 18 348 348 23 335 319 339 337 323 324 341 272 260 256 251
225 222 228 243 253 249 223 181 196 206 222 229 229 256 279 243 212 206 224 220 195 208 174 157 155 155 161 167 168 163 162 162 162 164 160 156 155 150 147 145 143 144 146 148 151 149 143 148 151 150 149 148 149 155 153 143 155 162 153 157 155 158 160 152 158 162 157 165 175 177 191 205 186 221 262 256 252 16 322 337 21 358 2 325 311 346 301 304 321 303 289 296 296 266 262 259 260
224 233 223 229 228 227 217 187 198 209 222 226 236 261 258 243 221 202 221 204 151 162 150 146 149 157 169 173 170 165 163 164 163 161 158 156 153 149 146 144 145 147 148 148 149 150 148 153 152 151 152 151 155 155 146 147 161 158 153 158 154 155 153 156 171 169 164 171 177 183 193 198 193 254 277 295 320 335 300 300 7 326 333 317 304 315 319 313 304 279 274 276 277 272 268 265 266
220 241 233 216 219 224 223 218 214 213 218 225 239 248 243 242 233 214 212 179 159 164 153 154 157 167 174 172 170 166 163 163 160 155 155 155 150 148 146 145 148 149 150 150 150 152 153 154 153 154 155 155 154 147 148 158 159 152 153 157 153 151 151 162 168 155 159 171 176 179 192 199 188 222 267 287 299 300 296 309 325 308 305 289 297 318 307 296 292 288 287 284 282 277 275 275 273
213 230 235 215 220 226 225 223 220 216 215 222 231 238 239 233 231 223 195 161 156 163 165 163 163 169 171 168 169 168 167 163 156 153 151 151 149 146 147 148 151 151 152 153 151 155 157 155 156 158 157 157 151 150 158 157 151 151 152 155 153 152 158 162 158 159 164 168 177 177 189 206 201 219 255 280 286 295 306 319 319 314 312 303 305 307 294 290 286 282 282 282 286 280 274 276 277
214 225 228 220 223 224 221 220 216 214 215 220 227 233 232 221 219 208 163 151 156 158 159 159 161 167 168 170 171 168 164 157 152 150 147 149 149 148 150 150 153 155 154 154 155 159 157 154 160 162 159 158 155 155 156 150 151 157 158 161 161 159 157 150 152 166 158 158 175 176 197 210 224 239 266 297 298 306 313 318 315 319 312 310 315 305 302 307 295 283 275 269 275 275 266 269 279
227 229 226 220 226 225 216 219 214 211 215 215 225 235 222 209 208 181 134 148 163 157 149 155 166 170 173 174 169 162 153 149 148 148 149 150 151 151 151 152 155 156 155 155 159 160 155 158 163 161 159 157 155 155 154 156 160 159 159 163 163 156 144 142 155 156 141 139 130 147 214 194 230 254 280 313 326 325 328 333 324 321 317 316 319 311 309 312 306 299 289 283 288 285 277 279 285
232 226 229 218 220 229 215 217 213 209 214 205 216 238 218 202 176 83 88 98 152 162 161 170 177 172 174 172 160 149 142 147 151 149 151 149 148 151 149 153 155 153 156 160 161 157 155 161 164 159 155 152 154 159 161 164 162 153 152 156 150 142 139 142 144 133 126 122 115 136 132 104 200 285 351 349 4 348 345 345 339 333 330 331 327 322 322 323 323 315 307 306 302 293 289 289 289
226 214 232 222 214 226 214 215 210 206 211 196 203 233 214 163 62 71 103 110 66 79 74 98 167 184 173 169 162 147 137 145 149 148 149 144 142 146 147 152 154 153 158 162 162 161 161 162 164 165 161 157 160 163 165 163 153 147 148 148 139 133 135 133 129 130 130 124 110 93 76 69 21 357 329 359 21 4 360 353 350 345 337 337 333 329 328 325 322 316 314 313 302 301 300 294 291
218 208 224 230 224 223 206 206 206 205 204 192 207 233 197 69 55 73 111 138 107 76 53 55 86 57 67 103 130 126 116 126 135 142 149 146 140 139 143 148 149 153 160 163 166 167 168 166 167 170 166 164 164 162 164 156 144 145 147 144 135 129 130 127 127 132 124 109 81 64 63 57 32 358 347 21 38 16 1 345 339 331 327 331 326 322 321 316 310 308 310 304 299 306 305 294 291
214 215 215 222 231 228 199 195 201 205 195 191 212 229 121 69 58 81 113 147 141 117 110 97 100 94 78 72 84 99 95 100 113 116 138 147 142 140 146 152 152 157 165 169 169 170 170 170 169 168 168 167 162 159 159 152 145 144 142 137 131 128 127 125 127 122 108 93 84 73 54 63 41 37 30 353 8 1 336 320 312 309 314 319 315 315 317 313 306 302 301 299 299 301 300 301 297
208 215 220 214 218 235 201 184 194 204 198 192 213 223 104 94 117 171 171 156 146 127 132 140 125 123 122 109 106 111 103 92 93 89 80 121 139 149 155 155 152 157 172 175 171 171 168 168 169 166 168 165 159 156 154 152 145 137 133 128 125 126 122 121 125 121 110 97 94 76 39 291 227 75 303 289 311 314 306 302 300 307 312 310 309 309 311 312 306 302 298 297 300 300 303 306 300
202 206 225 215 211 231 204 174 187 203 207 197 210 214 107 130 156 173 189 166 149 136 133 140 136 130 130 130 128 126 115 98 104 116 96 119 140 156 155 150 151 159 179 177 167 165 161 163 165 161 160 157 153 152 152 147 137 129 126 121 121 125 124 125 123 117 112 92 73 53 40 302 211 351 298 297 302 308 310 305 305 314 316 311 311 308 308 309 304 303 301 300 302 302 304 302 296
200 198 215 216 210 223 206 176 184 200 207 202 210 201 121 140 162 160 171 172 154 143 145 147 141 132 126 130 137 140 137 125 125 116 101 121 140 153 147 145 155 164 177 170 154 156 159 156 153 151 150 156 160 156 150 137 128 125 119 117 118 118 119 122 110 100 97 86 77 58 55 72 69 31 329 311 301 316 321 320 320 320 318 313 311 307 308 310 309 312 310 309 311 309 306 302 300
204 198 208 216 208 214 211 186 181 195 202 205 210 177 127 152 163 157 165 171 159 147 151 148 138 130 123 128 135 136 137 133 134 126 112 124 142 153 146 138 144 155 161 156 155 161 156 147 146 151 152 155 168 160 140 120 116 116 114 113 112 110 108 109 105 105 102 97 99 80 67 73 58 42 26 347 323 329 325 324 320 319 323 315 309 309 312 316 315 317 315 313 314 313 313 310 308
206 200 206 219 214 209 210 184 176 189 198 210 202 140 129 162 147 148 169 173 165 154 155 154 145 136 129 136 135 124 124 126 132 138 129 132 145 147 139 136 139 145 151 154 160 157 147 149 157 159 151 154 176 168 136 121 116 111 113 113 107 105 100 98 120 151 147 145 147 135 124 124 102 79 74 8 286 283 306 317 312 311 310 305 306 304 302 306 310 312 314 315 315 314 316 314 313
214 206 204 214 220 201 181 155 170 187 199 211 193 133 133 164 127 129 196 197 176 163 164 164 158 149 142 142 137 126 121 121 129 136 135 137 145 139 129 141 145 139 144 148 147 146 147 156 161 159 157 164 175 164 136 127 121 116 119 117 111 106 104 114 150 182 176 161 161 162 164 179 168 181 221 225 237 238 237 252 270 275 269 268 271 269 273 280 285 291 301 309 313 313 315 314 315
223 218 206 206 217 197 163 163 178 188 205 202 182 152 146 162 145 146 185 215 205 184 177 171 163 157 153 149 139 133 130 129 131 136 139 141 146 140 132 141 147 142 143 139 136 145 152 156 152 149 155 160 152 140 133 130 125 122 117 109 115 122 126 125 101 102 114 122 158 197 242 239 243 265 264 259 263 266 264 254 246 252 255 255 257 262 268 271 275 281 290 300 301 302 309 313 313
222 222 207 202 212 198 164 173 185 193 209 189 172 170 147 150 162 170 183 196 206 201 185 172 169 162 157 154 145 140 139 138 137 139 143 146 149 147 142 140 142 144 143 139 141 144 142 145 143 139 142 140 127 116 116 118 117 117 108 94 82 74 92 83 65 98 133 153 194 234 274 272 270 281 285 283 283 287 293 288 274 265 263 264 268 274 277 276 279 283 285 289 294 299 300 294 295
218 223 211 209 205 188 169 175 185 197 206 188 175 180 156 155 164 178 183 187 195 192 178 170 173 166 155 151 146 141 142 142 142 139 139 145 151 153 152 148 145 149 149 143 149 158 149 143 144 145 140 130 120 112 107 102 96 90 79 66 55 56 67 57 55 119 168 194 233 269 292 289 278 279 281 283 285 288 292 296 298 294 288 280 276 280 283 281 284 289 288 288 295 304 304 299 296
212 222 222 223 195 174 183 181 179 194 198 187 184 200 198 167 167 170 168 176 188 180 170 170 169 163 154 145 141 139 139 141 143 139 138 147 152 151 151 153 155 159 161 154 155 168 164 150 141 143 145 135 122 114 108 103 94 85 67 44 41 65 94 111 140 157 179 220 262 278 282 277 272 271 276 284 290 290 291 294 291 295 310 302 293 291 292 288 285 291 297 296 299 298 299 305 308
208 205 222 244 204 184 195 183 180 201 195 183 192 213 209 175 180 177 166 173 177 169 166 168 163 159 154 147 144 141 140 142 144 143 142 148 152 148 147 153 157 162 164 161 156 154 158 157 136 127 139 140 125 107 97 104 96 86 88 73 68 110 158 211 219 213 227 253 267 267 259 263 271 277 284 289 291 289 292 296 295 302 318 325 337 333 315 308 296 292 298 303 308 302 298 308 313
216 180 198 252 216 192 193 182 188 209 193 181 197 219 230 197 186 175 174 180 175 173 173 167 162 160 153 150 151 146 146 148 146 146 145 147 149 149 149 149 152 157 158 158 155 144 141 140 127 131 149 141 117 91 80 95 94 83 95 107 119 160 212 236 239 236 245 253 258 261 258 266 280 289 293 293 295 302 310 318 334 357 12 31 26 358 337 352 352 336 329 327 327 322 315 314 314
222 166 176 221 211 190 187 186 200 208 198 194 201 214 231 223 178 163 173 186 183 182 179 168 164 163 156 154 154 149 149 149 145 145 145 144 144 148 151 148 150 157 157 157 154 145 138 126 122 144 157 133 113 103 89 85 85 84 87 95 105 130 208 230 236 238 245 238 243 269 279 288 296 300 305 319 358 15 18 17 33 45 52 64 57 30 21 22 18 12 4 358 351 339 323 313 310
194 155 172 199 205 195 192 201 212 208 210 212 202 206 225 229 168 157 178 193 188 182 180 174 168 170 168 160 156 151 148 146 142 142 141 143 147 151 156 155 158 163 161 157 152 145 141 127 120 131 128 115 112 106 93 79 75 80 84 85 89 89 102 128 181 210 219 209 240 267 287 298 301 311 346 39 43 37 37 40 52 58 58 64 62 52 37 26 25 21 11 5 2 355 345 336 323
152 155 182 191 201 204 201 214 217 213 219 217 207 206 219 227 181 167 188 195 186 178 180 178 171 175 175 164 159 158 153 146 143 141 139 145 151 155 160 160 163 166 160 154 148 142 137 123 117 117 107 105 101 90 85 78 72 76 78 76 78 86 96 103 161 196 196 199 251 273 291 298 331 31 44 51 40 39 53 60 67 68 64 63 59 53 40 32 36 30 13 8 7 3 358 356 348
163 175 192 182 193 204 203 213 216 220 223 212 211 211 216 230 208 173 183 192 192 190 185 179 173 174 171 163 161 165 162 154 148 146 143 146 148 150 156 158 161 165 160 155 146 136 128 116 113 110 98 92 88 81 79 75 71 72 71 65 70 85 104 108 123 150 161 170 188 104 78 70 66 61 54 49 48 61 72 73 72 69 64 58 50 47 42 35 38 32 20 15 11 5 2 358 356
181 188 193 181 186 194 201 208 208 220 226 213 214 212 214 236 220 169 178 191 196 194 183 177 178 171 163 163 166 169 170 162 155 152 149 151 153 152 154 155 158 161 157 149 140 130 123 115 110 104 97 92 86 81 77 78 76 73 71 68 72 86 99 102 109 122 140 149 133 109 94 79 73 66 53 53 66 75 77 72 67 62 58 54 46 45 45 39 42 39 29 26 20 16 14 6 360
189 192 191 188 187 186 197 203 202 214 223 224 224 215 210 229 208 173 181 192 189 187 183 179 178 165 153 160 171 173 172 166 161 157 154 155 157 156 156 158 160 158 147 141 136 131 123 117 112 104 98 92 88 85 81 79 72 68 77 80 82 93 102 111 118 118 122 126 123 118 103 86 75 68 65 74 81 80 73 65 63 60 57 56 52 52 52 46 48 46 36 34 33 30 26 20 13
193 201 201 203 198 187 193 202 204 208 210 209 213 211 207 218 195 162 176 183 184 188 184 178 174 161 152 163 174 172 171 169 167 162 158 158 157 158 160 160 158 151 143 141 136 130 125 121 116 109 103 97 95 94 87 80 65 66 83 89 95 98 101 117 123 112 106 109 112 111 101 85 79 84 87 87 84 80 75 68 65 63 61 61 58 56 56 52 52 49 41 38 40 38 33 29 27
193 207 212 212 206 192 188 217 229 225 219 202 190 200 191 166 75 132 164 172 180 183 169 164 166 162 162 172 172 167 170 174 174 168 162 159 157 157 158 156 152 147 143 141 137 133 129 125 120 114 109 104 104 103 93 85 78 83 91 93 97 97 95 107 114 110 109 106 101 99 95 93 97 98 95 89 83 80 80 75 70 66 63 62 61 58 57 55 54 52 45 40 44 42 32 28 29
187 206 215 211 212 209 192 202 279 273 236 202 185 198 161 133 162 177 170 170 175 168 150 153 164 165 168 174 169 166 173 176 175 172 165 159 158 156 153 152 150 146 144 142 139 136 130 126 123 119 115 112 111 103 89 88 90 92 94 93 95 97 99 104 109 110 109 102 96 93 96 104 108 102 96 91 85 81 81 78 72 68 64 62 62 60 59 57 55 53 48 43 44 42 28 21 25
192 199 209 202 214 225 215 202 191 213 228 194 186 208 194 182 187 173 176 177 175 166 150 156 169 166 167 173 171 170 174 174 171 169 165 160 161 158 152 151 147 144 145 142 140 137 130 126 125 123 121 117 111 101 91 94 97 95 94 97 97 95 96 99 102 104 100 98 102 106 109 110 107 101 96 92 86 81 79 77 72 68 65 62 61 61 59 57 54 52 50 45 45 43 31 23 24
219 201 199 202 211 217 216 216 198 202 221 204 198 211 214 212 183 165 179 184 181 173 160 166 175 172 173 177 178 177 173 171 167 165 164 162 162 159 152 149 146 143 144 142 140 136 130 128 128 126 121 115 110 108 106 103 101 100 98 99 98 96 97 99 99 100 102 105 111 116 114 109 104 101 98 92 85 80 76 72 69 66 63 60 59 59 57 56 54 51 49 45 43 41 33 27 23
227 216 203 211 218 210 205 214 209 202 208 211 206 205 217 222 178 169 180 183 183 177 167 173 179 176 176 178 183 181 169 165 164 162 162 161 160 158 152 149 147 145 144 143 142 136 131 131 129 124 118 115 116 114 113 108 104 105 103 101 100 98 98 101 106 114 117 114 113 114 112 107 103 99 96 93 87 81 75 69 65 62 60 58 56 56 55 53 52 49 47 45 43 39 32 26 23
212 214 206 207 203 200 203 208 216 213 204 204 211 211 215 220 163 171 178 180 186 183 175 180 179 174 174 179 186 180 166 161 161 160 160 159 157 156 153 149 147 146 145 145 144 138 134 132 128 125 119 117 119 116 115 112 108 108 107 104 105 106 106 108 114 120 120 118 117 115 111 108 105 98 93 92 88 82 75 69 65 61 59 57 55 54 53 50 49 47 43 41 40 38 33 27 23
195 202 209 206 194 193 206 209 209 219 221 211 218 220 202 59 112 173 177 181 189 187 182 181 178 174 175 183 185 173 162 162 162 159 159 156 155 154 151 148 148 148 147 147 145 139 135 133 129 126 122 122 123 120 119 117 112 111 110 109 113 119 120 120 120 120 119 118 118 114 109 107 104 102 97 90 84 81 74 67 63 61 59 56 53 52 50 48 47 43 37 33 32 32 28 23 20